Regional Weather Roundup
Issued by NWS Sterling, VA

Home | Current Version | Previous Version | Text Only | Print | Product List | Glossary Off
Versions: 1 2 3 4 5 6 7 8 9 10 11 12 13 14 15 16 17 18 19 20 21 22 23 24 25 26 27 28 29 30 31 32 33 34 35 36 37 38 39 40 41 42 43 44 45 46 47 48 49 50

813
ASUS41 KLWX 051510
RWRLWX

REGIONAL WEATHER ROUNDUP
NATIONAL WEATHER SERVICE BALTIMORE MD/WASHINGTON DC
1000 AM EST FRI FEB 05 2016

Note: "FAIR" indicates few or no clouds below 12,000 feet
with no significant weather and/or obstructions to visibility.
 TC=TEMPERATURE CELSIUS

 * =Non NWS site. Station does not report precipitation (e.g. rain,
    snow, etc.), thunder, or fog.

DCZ001-MDZ009-015-VAZ040>042-051-053>054-051600-
WASHINGTON METRO

CITY           SKY/WX    TMP DP  RH WIND       PRES   REMARKS
WASHINGTON NAT FLURRIES  37  27  67 NW22G29   30.24R WCI  26
DULLES         CLOUDY    36  22  56 NW20G26   30.25R WCI  25
ANDREWS AFB    LGT RAIN  36  27  71 NW20      30.21R WCI  25
FT BELVOIR     FAIR      37  23  57 NW15G26   30.25R WCI  28
QUANTICO       FLURRIES  39  23  52 N25G33    30.27R WCI  28
COLLEGE PARK*  CLOUDY    37  28  70 NW10G17   30.23R
LEESBURG*      CLOUDY    36  28  75 NW24G32   30.26R WCI  24
MANASSAS*      CLOUDY    37  25  60 NW17G26   30.27R WCI  28
GAITHERSBURG*  CLOUDY    36  25  64 NW14G24   30.26R WCI  27

$$

MDZ006>007-011-014-051600-
BALTIMORE METRO

CITY           SKY/WX    TMP DP  RH WIND       PRES   REMARKS
BWI AIRPORT    LGT SNOW  37  33  85 W14G22    30.21R WCI  28
MD SCIENCE CTR   N/A     39  31  72 MISG      30.22R
MARTIN STATE   PTSUNNY   41  34  75 NW12      30.21R
ANNAPOLIS      CLOUDY    38  33  82 W10       30.20R
FORT MEADE*    CLOUDY    34  32  93 NW6       30.25R VSB 1

$$

MDZ012-015-019>023-051600-
MARYLAND EASTERN SHORE

CITY           SKY/WX    TMP DP  RH WIND       PRES   REMARKS
OCEAN CITY     LGT SNOW  33  32  96 N16G24    30.12F FOG     WCI  23
SALISBURY      MIX PCPN  34  32  92 N12       30.14R WCI  25
BAY BRIDGE AP*   N/A     39  32  75 NW13G18   30.19S
CAMBRIDGE*     CLOUDY    36  32  87 NW10      30.17S WCI  28
EASTON*        MOSUNNY   36  36 100 NW7       30.21R

$$

MDZ017>025-051600-
SOUTHERN MARYLAND

CITY           SKY/WX    TMP DP  RH WIND       PRES   REMARKS
PATUXENT RIVER CLOUDY    37  31  78 NW25G33   30.20R WCI  25
ST INIGOES     MOSUNNY   37  32  82 NW9G20    30.19R
LEONARDTOWN*   CLOUDY    34  32  93 NW7G16    30.23R

$$

MDZ003>005-051600-
NORTH CENTRAL MARYLAND

CITY           SKY/WX    TMP DP  RH WIND       PRES   REMARKS
FREDERICK*     PTSUNNY   36  28  75 NW14      30.27R WCI  27
HAGERSTOWN APT PTSUNNY   36  22  56 NW21      30.25R WCI  25
WESTMINSTER*   CLOUDY    36  34  93 W13G20    30.20R WCI  27

$$

MDZ501>502-051600-
WESTERN MARYLAND

CITY           SKY/WX    TMP DP  RH WIND       PRES   REMARKS
OAKLAND*       CLOUDY    19  18  93 NW10      30.21R FOG     WCI   8
CUMBERLAND*    MOSUNNY   36  19  51 N13G18    30.35R WCI  27

$$

VAZ025>031-051600-
SHENANDOAH VALLEY

CITY           SKY/WX    TMP DP  RH WIND       PRES   REMARKS
WINCHESTER*    FAIR      36  21  55 NW15      30.27R WCI  26
FRONT ROYAL*   FAIR      34  18  51 NW13G24   30.27R WCI  25
LURAY*         FAIR      32  18  55 NW17G32   30.29R WCI  21
NEW MARKET*    CLOUDY    31  16  53 NW6G18    30.31R
STAUNTON*      FAIR      37  17  42 N15G21    30.31R WCI  28
WAYNESBORO*    FAIR      32  13  45 NW10G17   30.28R WCI  24

$$

WVZ021-048>050-054>055-051600-
EASTERN WEST VIRGINIA PANHANDLE

CITY           SKY/WX    TMP DP  RH WIND       PRES   REMARKS
MARTINSBURG    PTSUNNY   34  19  54 NW16G23   30.27R WCI  24
PETERSBURG*    PTSUNNY   32  15  50 CALM      30.34R

$$

VAZ036>039-050-051600-
CENTRAL FOOTHILLS

CITY           SKY/WX    TMP DP  RH WIND       PRES   REMARKS
CHARLOTTESVILL FAIR      37  16  42 NW15G24   30.29R WCI  28
CULPEPER*      PTSUNNY   36  19  49 NW18G26   30.29R WCI  25
ORANGE*        FAIR      37  21  52 NW16G23   30.29R WCI  28
GORDONSVILLE*  FAIR      37  20  49 NW10G24   30.29R
WARRENTON*     CLOUDY    37  25  61 NW20G26   30.26R WCI  27

$$

VAZ055>057-051600-
NORTH AND CENTRAL PIEDMONT

CITY           SKY/WX    TMP DP  RH WIND       PRES   REMARKS
FREDERICKSBRG* CLOUDY    37  23  55 NW21G29   30.25R WCI  27
STAFFORD*      CLOUDY    37  23  56 NW17G30   30.30R WCI  27

$$

NCZ024-NYZ072-PAZ021-071-VAZ022-071-051600-
OTHER REGIONAL OBSERVATIONS

CITY           SKY/WX    TMP DP  RH WIND       PRES   REMARKS
NEW YORK CITY  LGT SNOW  31  28  89 MISG      30.15R VSB 3/4
PHILADELPHIA   PTSUNNY   37  31  79 NE9       30.18R
PITTSBURGH     MOSUNNY   27  17  66 NW10      30.34R WCI  17
ROANOKE        FAIR      35  15  44 N14       30.35R WCI  26
RICHMOND       PTSUNNY   38  24  57 NW21G29   30.25R WCI  28
RALEIGH        MOSUNNY   40  24  53 NW13G22   30.32R

$$

ANZ530>537-051600-
MARINE OBSERVATIONS

STATION/POSITION TIME  TEMP    WIND        PRES
                       AIR SEA DIR/SP/G
                 (UTC) (F)     (DEG/KT/KT) (MB)
THOMAS PT LIGHT  NOT AVBL
BALT KEY BRIDGE  1400   38     280/ 10/ 12 1022.4R
COVE POINT       1400   35     340/ 14/ 22 1022.7R
LEWISETTA        1400   37 44  350/ 16/ 25 1022.1R
SOLOMONS ISLAND  1400   36 42  320/ 13/ 19   N/A

$$





USA.gov is the U.S. government's official web portal to all federal, state and local government web resources and services.